Location: Dugenta
(41.1333°N, 14.4500°E)
Time: 13:39:33
(UTC+00:00)

Cosmos 1869 Rocket - Pass Details

Date: 03 March 2021
Orbit: 605 x 633 km, 82.5° (Epoch: 14 April)

Event Time Altitude Azimuth Distance (km) Brightness Sun altitude
Rises 18:11:41 0° 165° (SSE) 2,854 6.8 -15.1°
Reaches altitude 10° 18:14:00 10° 157° (SSE) 1,959 5.8 -15.6°
Maximum altitude 18:17:57 35° 91° (E) 990 4.1 -16.3°
Drops below altitude 10° 18:21:58 10° 25° (NNE) 1,988 6.0 -17.1°
Sets 18:24:20 0° 17° (NNE) 2,903 6.9 -17.5°
